[[{"header":{"parameterUnit":"m.s-1","parameterCategory":1,"la1":30.2991,"la2":30.254,"lo1":-89.0895,"lo2":-89.0444,"dy":0.0017,"dx":0.0017,"nx":28,"ny":28,"refTime":"2023-08-24T21:00:00:Z","depth":0,"parameterNumber":2,"parameterNumberName":"U-component_of_WINDS"},"data":[0,0,0,0,0,0,0,0,0,0,0,0,0,0,0,0,0,0,0,0,0,0,0,0,0,0,0,0,0,0,0,0,0,0,0,0,0,0,0,0,0,0,0,0,0,0,0,0,0,0,0,0,0,0,0,0,0,0,1.7663,1.7664,0,1.7823,1.7825,1.7826,1.7749,1.7745,1.774,1.7736,1.7911,1.7919,1.7927,0,0,0,0,0,0,0,0,0,0,0,0,0,1.73,1.7307,1.7663,1.7665,1.7667,1.7822,1.7825,1.7827,1.7749,1.7744,1.7739,1.7735,1.7908,1.7918,1.7928,0,0,0,0,0,0,0,0,0,0,0,0,0,1.7459,1.7309,1.7662,1.7646,1.7647,1.7822,1.7825,1.7827,1.775,1.7744,1.7738,1.7732,1.7905,1.7917,1.793,1.8133,0,0,1.7969,1.7974,0,0,0,0,0,0,0,0,1.745,1.7472,1.7647,1.7648,1.7648,1.7759,1.776,1.793,1.7752,1.7711,1.7736,1.7729,1.7866,1.7882,1.7926,1.8141,1.8148,1.797,1.7977,1.7983,1.7987,0,0,0,0,0,0,0,1.7439,1.7465,1.7726,1.7649,1.765,1.7635,1.765,1.7792,1.7822,1.7714,1.7709,1.7729,1.7865,1.7913,1.7929,1.8151,1.7969,1.7981,1.7989,1.7994,1.8544,1.855,0,0,0,0,0,0,1.7427,1.7456,1.7721,1.7731,1.7531,1.7646,1.7664,1.773,1.782,1.7828,1.7734,1.7724,1.7895,1.7914,1.7935,1.818,1.7983,1.7995,1.8002,1.8537,1.8545,1.8553,0,0,0,0,0,0,1.7419,1.7451,1.7715,1.7592,1.7624,1.7659,1.7734,1.7737,1.7784,1.7835,1.784,1.7777,1.7891,1.7917,1.8084,1.8185,1.8001,1.8012,1.8529,1.8539,1.8549,1.8672,0,0,0,0,0,0,1.7409,1.7449,1.7524,1.7594,1.7631,1.7859,1.774,1.7744,1.7805,1.7795,1.7877,1.7884,1.7888,1.8065,1.8097,1.82,1.8022,1.852,1.8533,1.8546,1.8659,1.8686,1.8708,0,0,0,0,0,1.7397,1.7555,1.7529,1.7561,1.7725,1.7864,1.7886,1.7884,1.7814,1.7892,1.7924,1.7882,1.8168,1.8083,1.8118,1.8226,1.8513,1.8529,1.8545,1.8648,1.868,1.8707,0,0,0,0,0,0,1.7499,1.7563,1.7535,1.772,1.7787,1.7851,1.7949,1.7917,1.8008,1.7995,1.7991,1.801,1.8184,1.8221,1.8125,1.8428,1.8331,1.8354,1.8398,1.8429,1.8452,1.8441,1.8033,0,0,0,0,0,1.7542,1.7647,1.7698,1.7857,1.7891,1.7914,1.7975,1.7967,1.8038,1.8067,1.8111,1.8184,1.8291,1.8361,1.8462,1.8663,1.8682,1.8755,1.878,1.8799,1.8821,1.8932,1.8966,1.8604,1.8604,1.8604,0,0,1.7635,1.7683,1.7749,1.7878,1.7929,1.8041,1.7939,1.8061,1.8144,1.8086,1.8246,1.8281,1.8363,1.8548,1.8632,1.8585,1.8924,1.8819,1.8835,1.8845,1.8952,1.8986,1.9016,1.8615,1.8613,1.8611,0,0,1.786,1.7905,1.8042,1.8095,1.8172,1.8186,1.822,1.8289,1.8309,1.8468,1.8427,1.8528,1.8711,1.8772,1.8826,1.9074,1.904,1.9107,1.9236,1.9344,1.9373,1.9398,1.9489,1.9521,1.9127,1.9128,1.9128,0,1.7966,1.8128,1.8118,1.8243,1.8302,1.8251,1.8392,1.8445,1.8553,1.8596,1.854,1.877,1.8821,1.902,1.9081,1.9126,1.9166,1.9099,1.9369,1.9394,1.9418,1.9504,1.9538,1.9136,1.9135,1.9134,1.9133,0,1.8256,1.837,1.8472,1.8574,1.8644,1.8777,1.879,1.8863,1.8849,1.887,1.9035,1.9094,1.9207,1.9253,1.9242,1.9453,1.9421,1.9367,1.927,1.946,1.9542,1.9574,1.9147,1.9144,1.9142,1.914,0,0,1.8552,1.8645,1.8683,1.8729,1.8811,1.89,1.9032,1.9138,1.9202,1.9279,1.9391,1.9547,1.9498,1.956,1.9555,1.965,1.9845,1.9585,1.9587,1.9633,2.0083,2.0125,2.0163,1.9821,1.9828,1.9833,2.0077,0,1.8784,1.901,1.9005,1.9217,1.9324,1.9276,1.9391,1.9456,1.9479,1.9575,1.9602,1.9713,1.9639,1.9676,1.9768,1.9802,1.9936,1.9784,1.993,1.9935,1.9913,2.0205,2.0249,2.0477,2.0109,2.0114,2.0118,0,1.9086,1.9169,1.9391,1.9457,1.9501,1.9604,1.9702,1.9794,1.9867,1.9877,1.9946,1.9926,2.0063,1.9959,2.015,2.0046,2.0106,2.0132,2.014,2.0156,2.004,2.0231,2.0549,2.0585,2.0168,2.0164,2.016,0,1.9282,1.945,1.9604,1.9645,1.9726,1.9799,1.9837,1.9903,1.9968,2.0055,2.0097,2.02,2.0257,2.0339,2.0348,2.0271,2.0541,2.0437,2.0557,2.0557,2.0618,2.0614,2.0952,2.0652,2.0652,2.0651,2.065,0,1.9544,1.9682,1.9693,1.9789,1.9943,1.9937,2.0091,2.0122,2.0182,2.0285,2.0251,2.0349,2.0354,2.0457,2.0465,2.0623,2.0649,2.0663,2.0665,2.0668,2.0666,2.0709,2.0694,2.066,2.0658,2.0656,2.0655,0,1.979,1.9803,1.9968,2.003,2.0049,2.0161,2.0215,2.0308,2.0327,2.0458,2.0489,2.0521,2.0639,2.0655,2.0795,2.0801,2.0991,2.0974,2.0965,2.0964,2.1083,2.1072,2.1462,2.1514,2.1178,2.1181,2.1183,0,1.9957,2.0062,2.0134,2.0199,2.024,2.0345,2.0411,2.0409,2.0479,2.057,2.0653,2.0766,2.0857,2.1049,2.1087,2.1194,2.1181,2.131,2.1197,2.1197,2.1186,2.118,2.1192,2.1333,2.1337,2.1339,2.1342,0,2.0253,2.0254,2.0347,2.0444,2.0522,2.0599,2.0671,2.0727,2.0735,2.0816,2.0934,2.1005,2.1146,2.1261,2.1366,2.1408,2.1379,2.1377,2.141,2.1416,2.1407,2.1416,2.1027,2.1368,2.1366,2.1364,2.1362,2.1361,2.0467,2.0558,2.0623,2.0729,2.0782,2.0851,2.0941,2.097,2.1068,2.118,2.1174,2.1305,2.1377,2.1515,2.1565,2.167,2.1628,2.1676,2.1689,2.1701,2.1714,2.1388,2.1689,2.1688,2.1687,2.1687,2.1686,0,2.0762,2.0801,2.0899,2.0999,2.1084,2.1043,2.1122,2.1196,2.1311,2.1378,2.1468,2.1605,2.1716,2.1762,2.1872,2.1947,2.1936,2.1976,2.1972,2.1983,2.1744,2.1705,2.1983,2.1983,2.1983,2.1983,2.1983,2.1983,2.0926,2.1079,2.1088,2.1269,2.1307,2.1433,2.1482,2.1546,2.16,2.1753,2.1844,2.1872,2.1932,2.2045,2.2147,2.2157,2.2201,2.2247,2.2253,2.2029,2.1999,2.1971,2.1934,2.2256,2.2257,2.2483,2.2485,2.2486]},{"header":{"parameterUnit":"m.s-1","parameterCategory":1,"la1":30.2991,"la2":30.254,"lo1":-89.0895,"lo2":-89.0444,"dy":0.0017,"dx":0.0017,"nx":28,"ny":28,"refTime":"2023-08-24T21:00:00:Z","depth":0,"parameterNumber":3,"parameterNumberName":"V-component_of_WINDS"},"data":[0,0,0,0,0,0,0,0,0,0,0,0,0,0,0,0,0,0,0,0,0,0,0,0,0,0,0,0,0,0,0,0,0,0,0,0,0,0,0,0,0,0,0,0,0,0,0,0,0,0,0,0,0,0,0,0,0,0,1.4403,1.4404,0,1.4559,1.4561,1.4562,1.4484,1.448,1.4476,1.4472,1.4631,1.4639,1.4647,0,0,0,0,0,0,0,0,0,0,0,0,0,1.4031,1.4039,1.4402,1.4404,1.4406,1.4559,1.4561,1.4563,1.4485,1.448,1.4475,1.447,1.4628,1.4638,1.4647,0,0,0,0,0,0,0,0,0,0,0,0,0,1.4191,1.4041,1.4402,1.4386,1.4386,1.4558,1.4561,1.4564,1.4486,1.448,1.4474,1.4468,1.4625,1.4637,1.4649,1.4846,0,0,1.4686,1.4691,0,0,0,0,0,0,0,0,1.4182,1.4204,1.4386,1.4387,1.4388,1.4496,1.4488,1.4658,1.4488,1.4448,1.4472,1.4465,1.4591,1.4605,1.4648,1.4853,1.486,1.4687,1.4694,1.4699,1.4702,0,0,0,0,0,0,0,1.4171,1.4197,1.4464,1.4389,1.439,1.4369,1.4385,1.452,1.4552,1.4451,1.4446,1.4465,1.459,1.4637,1.4651,1.4862,1.4686,1.4697,1.4704,1.4709,1.5229,1.5236,0,0,0,0,0,0,1.4161,1.4189,1.4459,1.4469,1.4268,1.4381,1.4399,1.4467,1.455,1.4557,1.447,1.4461,1.4619,1.4637,1.4656,1.4888,1.4699,1.471,1.4717,1.5223,1.5231,1.5238,0,0,0,0,0,0,1.4153,1.4186,1.4453,1.4327,1.436,1.4394,1.4472,1.4474,1.452,1.4565,1.457,1.4513,1.4615,1.464,1.4798,1.4892,1.4716,1.4727,1.5215,1.5225,1.5235,1.5355,0,0,0,0,0,0,1.4143,1.4184,1.426,1.433,1.4367,1.4594,1.4478,1.4481,1.4541,1.4531,1.4606,1.4612,1.4612,1.478,1.481,1.4906,1.4736,1.5207,1.522,1.5231,1.5343,1.5368,1.5389,0,0,0,0,0,1.413,1.4289,1.4265,1.4298,1.4464,1.4599,1.462,1.4618,1.4549,1.4625,1.4653,1.461,1.4878,1.4797,1.483,1.4931,1.5201,1.5216,1.523,1.5332,1.5363,1.5389,0,0,0,0,0,0,1.4231,1.4298,1.4272,1.4458,1.4524,1.4586,1.4682,1.4651,1.4737,1.4723,1.4716,1.4733,1.4896,1.493,1.4839,1.5122,1.5028,1.505,1.5094,1.5124,1.5147,1.5134,1.4746,0,0,0,0,0,1.4274,1.438,1.4433,1.4592,1.4626,1.4649,1.4708,1.47,1.4767,1.4794,1.4834,1.49,1.4998,1.5063,1.5157,1.5347,1.536,1.5432,1.5456,1.5475,1.5493,1.5591,1.5622,1.5287,1.5287,1.5286,0,0,1.4366,1.4416,1.4484,1.4614,1.4663,1.477,1.4673,1.4792,1.487,1.4812,1.4963,1.4994,1.5067,1.5241,1.5319,1.5273,1.5588,1.5494,1.5508,1.5517,1.5609,1.5641,1.5669,1.5297,1.5295,1.5294,0,0,1.4587,1.4638,1.4773,1.4824,1.49,1.4913,1.4946,1.5012,1.503,1.5182,1.5138,1.5231,1.5402,1.5454,1.5503,1.5739,1.57,1.577,1.5891,1.5986,1.6012,1.6035,1.6115,1.6144,1.5788,1.5789,1.5789,0,1.4692,1.4853,1.4847,1.4968,1.5024,1.4976,1.5111,1.5161,1.5263,1.5302,1.525,1.546,1.5506,1.5688,1.5745,1.5788,1.5822,1.576,1.6009,1.6032,1.6054,1.613,1.616,1.5796,1.5795,1.5795,1.5794,0,1.4975,1.5087,1.5187,1.5286,1.5354,1.5482,1.5493,1.5562,1.5547,1.5564,1.5716,1.5769,1.587,1.5913,1.5901,1.6093,1.6061,1.601,1.5914,1.6094,1.6164,1.6194,1.5807,1.5804,1.5802,1.58,0,0,1.5266,1.5356,1.5393,1.5434,1.5513,1.5598,1.5722,1.582,1.5877,1.5949,1.605,1.6194,1.6144,1.62,1.6192,1.6277,1.6454,1.6213,1.6215,1.6253,1.6663,1.6699,1.6733,1.6429,1.6435,1.6439,1.6655,0,1.5489,1.5706,1.5702,1.5902,1.6002,1.5955,1.6062,1.612,1.6139,1.6226,1.6246,1.6347,1.6277,1.6309,1.6391,1.6415,1.6535,1.64,1.6519,1.6524,1.65,1.6771,1.681,1.7012,1.6683,1.6688,1.6691,0,1.5779,1.5858,1.6068,1.6126,1.6168,1.6265,1.6351,1.6436,1.6499,1.6507,1.6567,1.6544,1.6666,1.6569,1.6734,1.6642,1.6691,1.671,1.6717,1.6726,1.6617,1.6783,1.7076,1.7105,1.6736,1.6732,1.6729,0,1.5965,1.6124,1.6268,1.6306,1.6379,1.6447,1.6481,1.6538,1.6595,1.6671,1.6707,1.6796,1.6844,1.6912,1.6913,1.6843,1.7079,1.6983,1.7085,1.7085,1.7136,1.7132,1.7437,1.7173,1.7172,1.7172,1.7171,0,1.6213,1.6342,1.6352,1.6441,1.6582,1.6575,1.6715,1.6742,1.6792,1.6883,1.6849,1.6934,1.6932,1.7018,1.702,1.7153,1.7177,1.7183,1.7181,1.7185,1.7183,1.7214,1.7199,1.718,1.7178,1.7177,1.7175,0,1.6444,1.6456,1.6609,1.6665,1.6681,1.6783,1.6829,1.6912,1.6926,1.7041,1.7068,1.7091,1.719,1.7198,1.7314,1.7314,1.7475,1.746,1.7453,1.7449,1.755,1.7538,1.7883,1.7926,1.7637,1.764,1.7642,0,1.66,1.6697,1.6762,1.682,1.6857,1.6952,1.7009,1.7005,1.7066,1.7142,1.7215,1.731,1.7386,1.7546,1.7572,1.7659,1.7643,1.7757,1.7656,1.7654,1.7639,1.7632,1.7639,1.7776,1.778,1.7782,1.7784,0,1.6874,1.6874,1.6959,1.7044,1.7113,1.7181,1.7244,1.7293,1.7296,1.7366,1.7466,1.7525,1.7641,1.7734,1.7818,1.785,1.7817,1.7816,1.7844,1.7846,1.7837,1.7839,1.7503,1.7808,1.7806,1.7804,1.7803,1.7802,1.707,1.7152,1.7209,1.7303,1.7349,1.7407,1.7486,1.7509,1.7593,1.7687,1.7679,1.7789,1.7845,1.7954,1.7992,1.8076,1.8037,1.8078,1.8087,1.8097,1.8105,1.7826,1.8092,1.8091,1.809,1.809,1.8089,0,1.7338,1.7371,1.7458,1.7545,1.7618,1.7581,1.7647,1.771,1.7807,1.7862,1.7937,1.8049,1.8139,1.817,1.8256,1.8317,1.8304,1.834,1.8333,1.834,1.8137,1.8103,1.8349,1.8349,1.8349,1.8349,1.8349,1.8349,1.7486,1.7622,1.7628,1.7785,1.7817,1.7924,1.7965,1.8017,1.806,1.8187,1.8261,1.8281,1.8325,1.8413,1.8493,1.8499,1.8531,1.8572,1.8572,1.8382,1.8355,1.833,1.8298,1.858,1.8581,1.8767,1.8769,1.877]}]]